Glasgow, United Kingdom

4:11 PM GMT on February 07, 2016 (GMT +0000)
Glasgow

Weather History for EGPF - March, 2013

Change the Weather History Date:

Friday, March 1, 2013

  Actual Average Record
Temperature  
Mean Temperature 39 °F -  
Max Temperature 50 °F 47 °F 53 °F (2012)
Min Temperature 28 °F 34 °F 15 °F (2001)
Degree Days  
Heating Degree Days 26    
Moisture  
Dew Point 33 °F    
Average Humidity 81    
Maximum Humidity 100    
Minimum Humidity 54    
Precipitation  
Precipitation 0.00 in - - ()
Sea Level Pressure  
Sea Level Pressure 30.52 in    
Wind  
Wind Speed 2 mph ()    
Max Wind Speed 7 mph    
Max Gust Speed -    
Visibility 5.3 miles    
Events      
Averages and records for this station are not official NWS values.
T = Trace of Precipitation, MM = Missing Value Source: Averaged Metar Reports

Daily Weather History Graph

Daily Weather History Graph

Search for Another Location

Airport or City:

Trip Planner

Search our weather history database for the weather conditions in past years. The results will help you decide how hot, cold, wet, or windy it might be!

Date:

Astronomy

Mar. 01, 2013 Rise Set
Actual Time 7:08 AM GMT 5:52 PM GMT
Civil Twilight 6:31 AM GMT 6:29 PM GMT
Nautical Twilight 5:48 AM GMT 7:12 PM GMT
Astronomical Twilight 5:05 AM GMT 7:55 PM GMT
Moon 11:07 PM GMT (3/1) 7:56 AM GMT (3/1)
Length of Visible Light 11h 58m
Length of Day
10h 43m
Waning Gibbous, 85% of the Moon is Illuminated
Mar 1
Waning Gibbous
Mar 4
Last Quarter
Mar 11
New
Mar 19
First Quarter
Mar 27
Full

Hourly Weather History & Observations

Time (GMT) Temp. Windchill Dew Point Humidity Pressure Visibility Wind Dir Wind Speed Gust Speed Precip Events Conditions
12:20 AM 41.0 °F - 39.2 °F 93% 30.54 in 4.3 mi Variable 2.3 mph - N/A   Overcast
12:50 AM 41.0 °F 39.0 °F 37.4 °F 87% 30.54 in 5.0 mi Variable 3.5 mph - N/A   Overcast
1:20 AM 41.0 °F - 37.4 °F 87% 30.54 in 5.6 mi Variable 2.3 mph - N/A   Mostly Cloudy
1:50 AM 39.2 °F - 35.6 °F 87% 30.54 in 5.0 mi Calm Calm - N/A   Scattered Clouds
2:20 AM 37.4 °F - 35.6 °F 93% 30.54 in 6.2 mi Variable 2.3 mph - N/A   Mostly Cloudy
2:50 AM 39.2 °F - 35.6 °F 87% 30.54 in 6.2 mi Calm Calm - N/A   Overcast
3:20 AM 37.4 °F - 35.6 °F 93% 30.54 in 5.6 mi Variable 2.3 mph - N/A   Overcast
3:50 AM 39.2 °F - 35.6 °F 87% 30.54 in 5.6 mi Calm Calm - N/A   Overcast
4:20 AM 35.6 °F 31.7 °F 33.8 °F 93% 30.54 in 4.3 mi West 4.6 mph - N/A   Mostly Cloudy
4:50 AM 35.6 °F - 33.8 °F 93% 30.54 in 3.7 mi West 2.3 mph - N/A   Scattered Clouds
5:20 AM 33.8 °F 30.8 °F 32.0 °F 93% 30.51 in 4.3 mi SSW 3.5 mph - N/A   Mostly Cloudy
5:50 AM 32.0 °F - 32.0 °F 100% 30.51 in 5.6 mi Variable 2.3 mph - N/A   Scattered Clouds
6:20 AM 30.2 °F 26.7 °F 28.4 °F 93% 30.51 in 4.3 mi North 3.5 mph - N/A   Unknown
6:50 AM 28.4 °F 24.6 °F 26.6 °F 93% 30.51 in 3.7 mi Variable 3.5 mph - N/A   Unknown
7:20 AM 30.2 °F - 28.4 °F 93% 30.54 in 3.1 mi Variable 2.3 mph - N/A   Mist
7:50 AM 32.0 °F - 30.2 °F 93% 30.54 in 3.1 mi Calm Calm - N/A   Partly Cloudy
8:20 AM 32.0 °F - 30.2 °F 93% 30.54 in 6.2 mi Calm Calm - N/A   Partly Cloudy
8:50 AM 35.6 °F 32.8 °F 33.8 °F 93% 30.54 in - WSW 3.5 mph - N/A   Clear
9:20 AM 37.4 °F - 35.6 °F 93% 30.57 in - Calm Calm - N/A   Clear
9:50 AM 42.8 °F - 35.6 °F 76% 30.57 in - Calm Calm - N/A   Clear
10:20 AM 44.6 °F - 35.6 °F 71% 30.57 in - Variable 2.3 mph - N/A   Clear
10:50 AM 44.6 °F - 35.6 °F 71% 30.57 in - Variable 2.3 mph - N/A   Clear
11:20 AM 46.4 °F - 35.6 °F 66% 30.54 in 6.2 mi Variable 2.3 mph - N/A   Partly Cloudy
11:50 AM 48.2 °F - 35.6 °F 62% 30.54 in 6.2 mi Variable 2.3 mph - N/A   Scattered Clouds
12:20 PM 48.2 °F - 33.8 °F 58% 30.54 in 6.2 mi Variable 2.3 mph - N/A   Scattered Clouds
12:50 PM 48.2 °F - 33.8 °F 58% 30.54 in 6.2 mi Variable 2.3 mph - N/A   Scattered Clouds
1:20 PM 46.4 °F - 33.8 °F 62% 30.54 in 6.2 mi NE 2.3 mph - N/A   Scattered Clouds
1:50 PM 48.2 °F - 33.8 °F 58% 30.51 in 6.2 mi Variable 2.3 mph - N/A   Scattered Clouds
2:20 PM 50.0 °F - 35.6 °F 58% 30.51 in 6.2 mi Variable 3.5 mph - N/A   Partly Cloudy
2:50 PM 50.0 °F - 33.8 °F 54% 30.51 in 6.2 mi Variable 2.3 mph - N/A   Partly Cloudy
3:20 PM 50.0 °F - 33.8 °F 54% 30.51 in 6.2 mi Variable 3.5 mph - N/A   Partly Cloudy
3:50 PM 50.0 °F - 33.8 °F 54% 30.48 in 6.2 mi Variable 2.3 mph - N/A   Partly Cloudy
4:20 PM 50.0 °F - 33.8 °F 54% 30.48 in - Variable 3.5 mph - N/A   Clear
4:50 PM 48.2 °F - 35.6 °F 62% 30.48 in - West 4.6 mph - N/A   Clear
5:20 PM 46.4 °F 45.2 °F 33.8 °F 62% 30.48 in - WSW 3.5 mph - N/A   Clear
5:50 PM 42.8 °F 41.1 °F 33.8 °F 70% 30.48 in - West 3.5 mph - N/A   Clear
6:20 PM 41.0 °F 38.0 °F 33.8 °F 76% 30.48 in - West 4.6 mph - N/A   Clear
6:50 PM 39.2 °F 35.0 °F 33.8 °F 81% 30.48 in - West 5.8 mph - N/A   Clear
7:20 PM 37.4 °F 33.8 °F 32.0 °F 81% 30.48 in - West 4.6 mph - N/A   Clear
7:50 PM 33.8 °F 28.6 °F 30.2 °F 87% 30.48 in - West 5.8 mph - N/A   Clear
8:20 PM 32.0 °F 25.6 °F 30.2 °F 93% 30.48 in - WSW 6.9 mph - N/A   Clear
8:50 PM 32.0 °F 26.4 °F 30.2 °F 93% 30.48 in - WSW 5.8 mph - N/A   Clear
9:20 PM 32.0 °F 28.7 °F 30.2 °F 93% 30.48 in - West 3.5 mph - N/A   Clear
9:50 PM 30.2 °F - 28.4 °F 93% 30.48 in - West 2.3 mph - N/A   Clear
10:20 PM 30.2 °F 25.4 °F 28.4 °F 93% 30.48 in - WSW 4.6 mph - N/A   Clear
10:50 PM 28.4 °F 23.3 °F 26.6 °F 93% 30.48 in - SW 4.6 mph - N/A   Clear
11:20 PM 30.2 °F - 30.2 °F 100% 30.45 in - WNW 2.3 mph - N/A   Clear
11:50 PM 30.2 °F 26.7 °F 28.4 °F 93% 30.45 in - West 3.5 mph - N/A   Clear